This is the latest recevied weather packets stored in our database for station/object KD9JB-1. If no packets are shown the sender has not sent any weather packets the latest 10 day(s).
| Time | Temp. | Humidity | Pressure | Rain* | Wind** | Luminosity | Snow |
|---|---|---|---|---|---|---|---|
| 1778038295 | 9.44° C | 94% | 1009.4 hPa | 5.59 mm | - | - | - |
| 1778037995 | 9.44° C | 94% | 1009 hPa | 5.84 mm | - | - | - |
| 1778037695 | 9.44° C | 94% | 1007.8 hPa | 5.59 mm | - | - | - |
| 1778037395 | 9.44° C | 93% | 1008.1 hPa | 5.59 mm | - | - | - |
| 1778037095 | 9.44° C | 93% | 1008 hPa | 5.33 mm | - | - | - |
| 1778036795 | 9.44° C | 93% | 1008.4 hPa | 4.06 mm | - | - | - |
| 1778036495 | 9.44° C | 93% | 1008.2 hPa | 4.06 mm | - | - | - |
| 1778036195 | 9.44° C | 93% | 1008.4 hPa | 4.32 mm | - | - | - |
| 1778035895 | 9.44° C | 93% | 1008.5 hPa | 4.06 mm | - | - | - |
| 1778035595 | 9.44° C | 93% | 1008.3 hPa | 4.06 mm | - | - | - |
| 1778035295 | 10° C | 93% | 1008.9 hPa | 4.06 mm | - | - | - |
| 1778034995 | 10° C | 93% | 1009.6 hPa | 2.79 mm | - | - | - |
| 1778034695 | 10° C | 93% | 1008.4 hPa | 2.54 mm | - | - | - |
| 1778034395 | 10° C | 93% | 1008.1 hPa | 1.78 mm | - | - | - |
| 1778034095 | 10° C | 93% | 1008.4 hPa | 1.78 mm | - | - | - |
| 1778033795 | 10° C | 93% | 1008.4 hPa | 1.52 mm | - | - | - |
| 1778033495 | 10° C | 93% | 1008 hPa | 1.52 mm | - | - | - |
| 1778033195 | 10° C | 93% | 1007.9 hPa | 1.52 mm | - | - | - |
| 1778032895 | 10° C | 93% | 1007.8 hPa | 1.52 mm | - | - | - |
| 1778032595 | 10° C | 93% | 1007.4 hPa | 1.27 mm | - | - | - |
| 1778032295 | 10° C | 93% | 1007.3 hPa | 1.27 mm | - | - | - |
| 1778031995 | 10° C | 93% | 1007.5 hPa | 1.02 mm | - | - | - |
| 1778031695 | 10° C | 93% | 1007.6 hPa | 0.51 mm | - | - | - |
| 1778031395 | 10° C | 93% | 1007.5 hPa | 0 mm | - | - | - |
| 1778031095 | 10° C | 93% | 1007.4 hPa | 0 mm | - | - | - |
* Rain latest hour (hover to see other rain measurements)
** Current wind speed in m/s (hover to see current wind gust speed)